Terminal Aerodrome Forecast
Issued by NWS

Home | Current Version | Previous Version | Text Only | Print | Product List | Glossary On
Versions: 1 2 3 4 5 6 7 8 9 10 11 12 13 14 15 16 17
000
FTUS43 KDTX 031505 AAB
TAFMBS
TAF AMD
KMBS 031505Z 0315/0412 15012KT 1SM -SN BR OVC015
      TEMPO 0315/0317 1/2SM SN OVC010
     FM031800 17013KT 1SM -SN BR OVC008
     FM032300 22014KT 1SM -FZDZ BR OVC007
     FM040200 26014KT P6SM OVC015
     FM040600 28010KT P6SM SCT025 BKN035=

USA.gov is the U.S. government's official web portal to all federal, state and local government web resources and services.